#timestamp,LO_Frequency,Hit,StdDev 
1702076415.4,286046998.8,N
1702076435.2,286047001.2,N
1702076455.0,286046998.5,N
1702076455.9,286046998.5,N
1702076475.8,286046999.2,N
1702076495.6,286046997.0,N
1702076515.4,286046996.8,N
1702076535.3,286046996.7,N
1702076555.1,286047001.2,N
1702076575.9,286046999.3,N
1702076595.7,286046998.2,N
1702076615.5,286046998.5,N
1702076635.4,286046998.2,N
1702076655.2,286047001.1,N
1702076675.0,286046998.6,N
1702076675.9,286046998.6,N
1702076695.8,286046998.3,N
1702076715.6,286046998.2,N
1702076735.5,286046998.5,N
1702076755.3,286047000.7,N
1702076775.1,286047001.2,N
1702076795.9,286046998.7,N
1702076815.7,286046998.9,N
1702076835.5,286046999.3,N
1702076855.4,286046999.1,N
1702076875.2,286046999.4,N
1702076895.1,286046999.4,N
1702076896.0,286046999.4,N
1702076915.8,286046998.3,N
1702076935.7,286046998.7,N
1702076955.5,286046998.5,N
1702076975.3,286046998.4,N
1702076995.2,286046998.2,N
1702077015.0,286046998.9,N
1702077015.9,286046998.9,N
1702077035.7,286046999.3,N
1702077055.6,286046998.9,N
1702077075.4,286046999.4,N
1702077095.3,286046999.2,N
1702077115.1,286046999.1,N
1702077135.9,286046998.4,N
1702077155.7,286046998.2,N
1702077175.5,286046998.8,N
1702077195.4,286047000.3,N
1702077215.2,286047001.0,N
1702077235.0,286047001.0,N
1702077236.0,286047001.0,N
1702077255.8,286047001.0,N
1702077275.6,286046998.6,N
1702077295.5,286046998.4,N
1702077315.3,286046996.9,Y
1702077335.1,286046998.2,P
1702077355.9,286046998.8,N
1702077405.8,286046998.4,E
1702077415.7,286046998.8,N
1702077435.5,286047000.0,P
1702077455.3,286046999.7,N
1702077475.2,286047002.3,Y
1702077495.0,286047001.8,P
1702077495.9,286047001.8,N
1702077515.8,286047004.3,P
1702077535.6,286047003.8,N
1702077555.4,286047003.4,N
1702077575.3,286047003.1,N
1702077595.1,286047002.9,N
1702077615.9,286047003.1,N
1702077635.7,286047001.3,N
1702077655.5,286047003.3,N
1702077675.4,286047001.3,N
1702077695.2,286047003.9,N
1702077715.0,286047004.1,Y
1702077716.0,286047004.1,P
1702077735.8,286046998.2,N
1702077755.6,286047002.4,N
1702077775.5,286047000.2,N
1702077795.3,286047000.7,N
1702077815.1,286047000.8,N
1702077835.9,286046998.1,N
1702077855.7,286046998.1,N
1702077875.5,286047000.2,N
1702077895.4,286047001.0,N
1702077915.2,286047000.2,N
1702077935.1,286047002.3,N
1702077936.0,286047002.3,N
1702077955.8,286046999.8,N
1702077975.6,286046999.8,N
1702077995.5,286047002.6,N
1702078015.3,286047004.0,N
1702078035.1,286047002.1,N
1702078055.9,286046999.8,N
1702078075.7,286046998.3,N
1702078095.6,286046998.4,N
1702078115.4,286047000.7,N
1702078135.2,286047001.0,N
1702078155.1,286047000.0,N
1702078156.0,286047000.0,N
1702078175.8,286047002.2,N
1702078195.7,286046999.8,N
1702078215.5,286046999.7,N
1702078235.3,286047002.8,N
1702078255.2,286047002.8,N
1702078275.9,286047001.7,N
1702078295.7,286046999.9,N
1702078315.6,286047000.2,N
1702078335.4,286046999.9,N
1702078355.3,286046998.9,N
1702078375.1,286046998.7,N
1702078376.0,286046998.7,N
1702078395.8,286046998.2,N
1702078415.7,286046998.1,N
1702078435.5,286047001.0,N
1702078455.3,286046999.9,N
1702078475.2,286046999.7,N
1702078495.0,286047000.1,N
1702078495.9,286047000.1,N
1702078515.8,286047002.4,N
1702078535.6,286047001.0,N
1702078555.4,286046998.5,N
1702078575.3,286046998.9,N
1702078595.1,286046998.7,N
1702078615.8,286046998.8,N
1702078635.7,286046999.4,N
1702078655.5,286046998.8,N
1702078675.4,286047001.2,N
1702078695.2,286046998.6,N
1702078715.0,286046998.3,N
1702078715.9,286046998.3,N
1702078735.8,286046998.4,N
1702078755.6,286046998.1,N
1702078775.5,286047000.3,N
1702078795.3,286046998.6,N
1702078815.1,286046998.2,N
1702078835.9,286047000.6,N
1702078855.7,286046998.3,N
1702078875.5,286046998.4,N
1702078895.4,286046998.1,N
1702078915.2,286046996.6,Y
1702078935.1,286046996.6,P
1702078936.0,286046996.6,N
1702078955.8,286046999.1,N
1702078975.6,286046999.0,N
1702078995.5,286046999.3,N
1702079015.3,286046999.0,N
1702079035.1,286046997.8,N
1702079055.9,286046996.9,N
1702079075.7,286046998.1,N
1702079095.6,286047001.2,N
1702079115.4,286047000.3,N
1702079135.2,286046999.9,N
1702079155.1,286047001.7,N
1702079156.0,286047001.7,N
1702079175.8,286047001.7,N
1702079195.6,286047002.8,N
1702079215.5,286047001.0,N
1702079235.3,286047000.4,N
1702079255.2,286047000.0,N
1702079275.9,286047002.0,N
1702079295.7,286047002.0,N
1702079315.6,286047002.3,N
1702079335.4,286047001.6,N
1702079355.2,286047002.6,N
1702079375.1,286046999.9,N
1702079376.0,286046999.9,N
1702079395.8,286046999.1,N
1702079415.7,286046998.7,N
1702079435.5,286047000.7,N
1702079455.3,286047000.3,N
1702079475.2,286047001.0,N
1702079495.0,286046999.8,N
1702079495.9,286046999.8,N
1702079515.7,286047002.3,N
1702079535.6,286047002.1,N
1702079555.4,286046999.8,N
1702079575.3,286046999.7,N
1702079595.1,286047002.2,N
1702079596.0,286047002.2,N
1702079615.8,286047000.5,N
1702079635.7,286047001.2,N
1702079655.5,286047000.7,N
1702079675.3,286047002.0,N
1702079695.2,286047002.3,N
1702079715.0,286047001.9,N
1702079715.9,286047001.9,N
1702079735.8,286047002.3,N
1702079755.6,286047002.3,N
1702079775.4,286047002.6,N
1702079795.3,286046998.2,N
1702079815.1,286046998.1,N
1702079835.8,286046998.1,N
1702079855.7,286046998.9,N
1702079875.5,286046999.1,N
1702079895.4,286046998.5,N
1702079915.2,286046998.5,N
1702079935.0,286047000.8,N
1702079935.9,286047000.8,N
1702079955.8,286047000.3,N
1702079975.6,286046999.8,N
1702079995.4,286047000.0,N
